STARLINK-1079 (44937 NORAD) Tracking and Keplerian Element Data

This shows tracking and keplerian element data for the satellite.

Feedback or suggestion? Click here.




ElementValue
Catalog44937
NameSTARLINK-1079
Epoch Orbit1361
Epoch Day94.25001157
Epoch Year2020
RAAN332.1286
Inclination52.9986
Eccentricity0.000136
Argument of Perigee81.3504
Mean Anonmoly136.3849
Mean Motion15.05598487
Decay Rate-0.00016907
L11 44937U 20001Z 20094.25001157 -.00016907 00000-0 -11434-2 0 9996
L22 44937 52.9986 332.1286 0001360 81.3504 136.3849 15.05598487 13611

Live tracking and technical data element details for STARLINK-1079 (NORAD 44937). STARLINK-1079 can be tracked NOW for your location showing map with azimuth and elevation plus other details from your city location.

Track the satellite on the map from your city or location and see movement details for azimuth, elevation, latitude, longitude, range, height, and movement on the map or in text.







IsCatalogInMostPopularTable: catalog: 44937, numindb: 17
Update: records affected: 1



GetName: 44937 STARLINK-1079

Hit Count: updated at: Sun, 05 Apr 2020 20:00:36 GMT